Location: Newark
(34.6000°S, 58.3833°W)
Time: 21:27:45
(UTC+00:00)

ISS - Pass Details

Date: 21 October 2019
Orbit: 412 x 421 km, 51.6° (Epoch: 17 November)

Event Time Altitude Azimuth Distance (km) Brightness Sun altitude
Rises 00:04:52 0° 269° (W) 2,359 1.0 -22.3°
Reaches altitude 10° 00:07:44 10° 242° (WSW) 1,503 0.2 -22.8°
Maximum altitude 00:09:36 14° 208° (SSW) 1,287 -0.5 -23.1°
Drops below altitude 10° 00:11:29 10° 174° (S) 1,513 -0.6 -23.4°
Enters shadow 00:13:08 - 156° (SSE) 1,963 -0.3 -23.7°
